Location: Shenandoah County Park
(38.9356°N, 78.4524°W)
Time: 13:58:00
(UTC-05:00)

Explorer 11/Cluster Stage 4 - Visible Passes

Search period start: 30 January 2023 00:00
Search period end: 09 February 2023 00:00
Orbit: 466 x 1244 km, 28.8° (Epoch: 30 January)

Date Brightness Start Highest point End Pass type
(mag) Time Alt. Az. Time Alt. Az. Time Alt. Az.
30 Jan 9.4 05:45:51 10° SSW 05:51:42 22° SSE 05:57:22 10° ESE visible
31 Jan 9.2 05:32:03 10° SSW 05:38:09 24° SSE 05:44:11 10° ESE visible
01 Feb 9.1 05:18:22 10° SSW 05:24:37 26° SSE 05:30:56 10° ESE visible
02 Feb 9.8 03:24:19 11° SE 03:24:19 11° SE 03:25:16 10° SE visible
02 Feb 8.9 05:06:18 16° SSW 05:11:04 27° SSE 05:17:37 10° ESE visible
02 Feb 8.6 06:52:04 10° WSW 06:59:30 39° S 07:06:37 10° ESE visible
03 Feb 9.8 03:12:07 11° SE 03:12:07 11° SE 03:12:35 10° SE visible
03 Feb 8.8 04:54:07 21° SSW 04:57:30 29° SSE 05:04:14 10° ESE visible
03 Feb 8.5 06:38:33 10° WSW 06:45:57 40° S 06:53:13 10° ESE visible
04 Feb 8.6 04:41:49 27° S 04:43:56 30° SSE 04:50:48 10° ESE visible
04 Feb 8.5 06:25:02 10° WSW 06:32:24 40° S 06:39:46 10° ESE visible
05 Feb 8.5 04:29:26 31° S 04:30:23 31° SSE 04:37:17 10° ESE visible
05 Feb 8.4 06:11:34 10° WSW 06:18:50 40° S 06:26:17 10° ESE visible
06 Feb 8.4 04:17:00 32° SSE 04:17:00 32° SSE 04:23:46 10° ESE visible
06 Feb 8.4 05:58:58 13° WSW 06:05:16 40° S 06:12:44 10° ESE visible
07 Feb 8.5 04:04:31 31° SSE 04:04:31 31° SSE 04:10:12 10° ESE visible
07 Feb 8.3 05:46:29 18° WSW 05:51:42 39° S 05:59:08 10° ESE visible
08 Feb 8.7 03:52:00 28° SE 03:52:00 28° SE 03:56:35 10° ESE visible
08 Feb 8.3 05:33:57 22° SW 05:38:08 39° S 05:45:31 10° ESE visible
